METEOR 2-9

Satellite information

Favourite Embed

Satellite Type and Status

PAYLOADIN ORBIT

Key statistics

Satellite METEOR 2-9 at a glance.

Uptime

15485

Days in orbit

Revolutions

≈ 14.2

Per day

Orbit

LEO

Low Earth Orbit

Inclination

81.3

Latest

Satellite identification and parameters

Extended collection of information and parameters for METEOR 2-9.

Object identification

Identified? True

Debris? False

Object name: METEOR 2-9

International designator: 1982-116A

Object number (NORAD): 13718

Object ID (CCSDS): 13718

Country: COMMONWEALTH OF INDEPENDENT STATES (CIS)

Current information (Y/N): Y

RCS size: LARGE

Orbital parameters

Period: 101.705 minutes

Inclination: 81.2529 deg

SMA: 7217.51 km

Apoapsis: 878.554 km

Periapsis: 800.196 km

RAAN: 26.4206 deg

Eccentricy: 0.0054283

Argument of periapsis: 43.1164 deg

Mean anomaly: 317.4242 deg

Mean motion: 14.15864353 rev/day

Mean motion (dot): 0.00000053 rev/day2

B* drag term: 0.000019875 1/REarth

Two-line elements (TLE)

Creation date: May 7, 2025, 3:14 a.m.

Reference frame: TEME

Reference center: EARTH

Epoch: May 6, 2025, 6:59 p.m. UTC

TLE line 0: 0 METEOR 2-9

TLE line 1: 1 13718U 82116A 25126.79121605 .00000053 00000-0 19875-4 0 9997

TLE line 2: 2 13718 81.2529 26.4206 0054283 43.1164 317.4242 14.15864353188864

Live tracking on map

Real-time ground track for satellite METEOR 2-9.

In-orbit conjunctions

A list of the most updated potential collisions computed for object METEOR 2-9.

Target Orbit TCA Probability of collision Miss distance Type
CZ-4C DEB SSO 2025-04-08 01:11:10 0.0005818941 47.0 (m) DEBRIS
FENGYUN 1C DEB SSO 2025-04-05 07:00:23 0.0005313992 359.0 (m) DEBRIS
CZ-6A DEB LEO 2025-02-23 18:15:19 0.0004063991 226.0 (m) DEBRIS
COSMOS 970 DEB LEO 2024-11-16 02:41:53 0.001728955 678.0 (m) DEBRIS
FENGYUN 1C DEB SSO 2024-11-08 00:36:40 0.0001367038 414.0 (m) DEBRIS

Associated space launch

Second generation soviet meteorological satellite

METEOR 2-9 was lifted into orbit during the mission ‘Vostok 8A92M | Meteor-2 9’, on board a Vostok 8A92M space rocket.

The launch took place on Dec. 14, 1982, 10:30 p.m. from 43/3 (43L).

For more information about the launch, click the button.

Launch to space Vostok 8A92M | Meteor-2 9
Vostok 8A92M | Meteor-2 9

Agency: N/A

Status: Launch Successful

Launch date: Dec. 14, 1982, 10:30 p.m. UTC

Rocket: Vostok 8A92M

Launch pad: 43/3 (43L)

Location: Plesetsk Cosmodrome, Russian Federation

...

Latest news about this satellite

There are no fresh news available about this satellite. Check back as we update our databases every day.


Newsletter sign-up

Weekly statistics, charts and insights to help you stay on top of the space industry.